Location: Taupo
(38.6830°S, 176.0830°E)
Time: 09:14:58
(UTC+13:00)

Lacrosse 5 - Pass Details

Date: 24 January 2019
Orbit: 713 x 725 km, 57.0° (Epoch: 17 February)

Event Time Altitude Azimuth Distance (km) Brightness Sun altitude
Rises 22:52:54 0° 238° (WSW) 3,162 6.4 -21.7°
Reaches altitude 10° 22:55:58 10° 256° (WSW) 2,230 5.1 -22.1°
Maximum altitude 22:59:25 18° 299° (WNW) 1,720 3.9 -22.5°
Enters shadow 23:01:11 16° 324° (NW) 1,860 3.8 -22.7°
